[[{"header":{"parameterUnit":"m.s-1","parameterCategory":1,"la1":30.2991,"la2":30.254,"lo1":-89.0895,"lo2":-89.0444,"dy":0.0017,"dx":0.0017,"nx":28,"ny":28,"refTime":"2025-03-15T09:00:00:Z","depth":0,"parameterNumber":2,"parameterNumberName":"U-component_of_WINDS"},"data":[0,0,0,0,0,0,0,0,0,0,0,0,0,0,0,0,0,0,0,0,0,0,0,0,0,0,0,0,0,0,0,0,0,0,0,0,0,0,0,0,0,0,0,0,0,0,0,0,0,0,0,0,0,0,0,0,0,0,-0.0375,-0.0376,0,-0.0537,-0.0539,-0.054,-0.0668,-0.0669,-0.0671,-0.0672,-0.0839,-0.0842,-0.0845,0,0,0,0,0,0,0,0,0,0,0,0,0,-0.0177,-0.018,-0.0375,-0.0377,-0.0379,-0.0536,-0.0539,-0.0541,-0.0668,-0.0669,-0.0671,-0.0672,-0.0838,-0.0842,-0.0845,0,0,0,0,0,0,0,0,0,0,0,0,0,-0.0293,-0.0181,-0.0374,-0.0461,-0.047,-0.0536,-0.0539,-0.0541,-0.0668,-0.0669,-0.0671,-0.0673,-0.0836,-0.0841,-0.0846,-0.0839,0,0,-0.0861,-0.0863,0,0,0,0,0,0,0,0,-0.0287,-0.0301,-0.0446,-0.0455,-0.0466,-0.0584,-0.0531,-0.0641,-0.0667,-0.0593,-0.0672,-0.0674,-0.0753,-0.0764,-0.0791,-0.0847,-0.0854,-0.0861,-0.0864,-0.0867,-0.0868,0,0,0,0,0,0,0,-0.0278,-0.0294,-0.0439,-0.0448,-0.046,-0.0493,-0.0511,-0.0552,-0.066,-0.0599,-0.0609,-0.0626,-0.0758,-0.0786,-0.0796,-0.0856,-0.0861,-0.0866,-0.0869,-0.0871,-0.0916,-0.0915,0,0,0,0,0,0,-0.0257,-0.0287,-0.0434,-0.0444,-0.0379,-0.0495,-0.0515,-0.0544,-0.066,-0.068,-0.0625,-0.0632,-0.0776,-0.079,-0.0802,-0.0803,-0.0867,-0.0871,-0.0874,-0.0918,-0.0916,-0.0914,0,0,0,0,0,0,-0.0252,-0.0269,-0.0427,-0.0368,-0.0391,-0.0496,-0.0527,-0.0546,-0.0574,-0.0679,-0.0699,-0.0633,-0.0778,-0.0795,-0.0829,-0.081,-0.0873,-0.0878,-0.092,-0.0917,-0.0915,-0.0802,0,0,0,0,0,0,-0.0246,-0.0266,-0.0264,-0.0367,-0.0393,-0.045,-0.0526,-0.0548,-0.0582,-0.0593,-0.0692,-0.071,-0.0781,-0.0821,-0.0834,-0.0818,-0.0882,-0.0922,-0.0919,-0.0916,-0.0808,-0.0796,-0.0785,0,0,0,0,0,-0.0238,-0.0225,-0.0263,-0.028,-0.0392,-0.0449,-0.0464,-0.0546,-0.058,-0.0579,-0.0647,-0.0707,-0.081,-0.0823,-0.0839,-0.0824,-0.0924,-0.092,-0.0916,-0.0813,-0.0798,-0.0786,0,0,0,0,0,0,-0.0117,-0.024,-0.0284,-0.0304,-0.0365,-0.047,-0.0472,-0.0527,-0.058,-0.0588,-0.0688,-0.0709,-0.0733,-0.0782,-0.0795,-0.0824,-0.0875,-0.0874,-0.0791,-0.0778,-0.0767,-0.0754,-0.0886,0,0,0,0,0,-0.0093,-0.0128,-0.0234,-0.0241,-0.027,-0.0365,-0.0393,-0.045,-0.0518,-0.0545,-0.0615,-0.0679,-0.0726,-0.0755,-0.0804,-0.0816,-0.084,-0.0813,-0.0802,-0.0792,-0.079,-0.0802,-0.0792,-0.0901,-0.0901,-0.0901,0,0,-0.0043,-0.0115,-0.0131,-0.0219,-0.0273,-0.0308,-0.0386,-0.0419,-0.0447,-0.055,-0.0587,-0.064,-0.0718,-0.0741,-0.0755,-0.0783,-0.0766,-0.0787,-0.0779,-0.0782,-0.0797,-0.0786,-0.0777,-0.0899,-0.0899,-0.09,0,0,0.003,-0.0027,-0.004,-0.0093,-0.0175,-0.0238,-0.0241,-0.0339,-0.0378,-0.0416,-0.0495,-0.0529,-0.0608,-0.0661,-0.0697,-0.0645,-0.0703,-0.0659,-0.06,-0.061,-0.0602,-0.0595,-0.0577,-0.0569,-0.0656,-0.0656,-0.0656,0,0.0102,0.0047,-0.004,-0.0069,-0.0106,-0.0201,-0.0216,-0.0263,-0.0356,-0.038,-0.041,-0.0511,-0.057,-0.0608,-0.0595,-0.0622,-0.0629,-0.0648,-0.0596,-0.0589,-0.0584,-0.0568,-0.0561,-0.065,-0.0651,-0.0652,-0.0652,0,0.0139,0.0102,0.0101,0.0014,-0.0023,-0.0045,-0.0136,-0.0163,-0.0218,-0.0278,-0.0317,-0.0391,-0.0457,-0.0471,-0.0524,-0.0516,-0.0531,-0.0577,-0.063,-0.0566,-0.0553,-0.0548,-0.0642,-0.0644,-0.0646,-0.0647,0,0,0.0284,0.0148,0.0149,0.0108,0.0011,-0.002,-0.0046,-0.0111,-0.0133,-0.0194,-0.0219,-0.0284,-0.0327,-0.0369,-0.043,-0.0438,-0.0394,-0.0484,-0.0487,-0.0465,-0.0391,-0.0356,-0.0347,-0.0433,-0.0432,-0.0431,-0.0385,0,0.0341,0.0289,0.0209,0.0183,0.0147,0.0056,0.0033,-0.003,-0.0087,-0.0127,-0.0191,-0.0236,-0.0289,-0.0315,-0.0328,-0.0396,-0.038,-0.0401,-0.0458,-0.0459,-0.0436,-0.0341,-0.0304,-0.0256,-0.038,-0.0379,-0.0379,0,0.0401,0.0345,0.0315,0.022,0.0202,0.0183,0.0116,0.008,0.0007,-0.0035,-0.0081,-0.0147,-0.0181,-0.0229,-0.0277,-0.0289,-0.0318,-0.0355,-0.0355,-0.0364,-0.0415,-0.0347,-0.0243,-0.0235,-0.0371,-0.0372,-0.0372,0,0.0508,0.0426,0.0397,0.0364,0.0253,0.0241,0.0194,0.0119,0.0085,0.0027,0.0003,-0.0058,-0.0091,-0.0138,-0.0219,-0.0246,-0.0259,-0.0313,-0.0295,-0.0293,-0.0294,-0.0293,-0.0192,-0.0311,-0.0311,-0.0311,-0.0311,0,0.058,0.0565,0.0444,0.0426,0.0406,0.0315,0.0298,0.0242,0.0176,0.0145,0.0062,0.0035,-0.0071,-0.0111,-0.0175,-0.0206,-0.022,-0.0255,-0.0272,-0.0248,-0.0244,-0.0268,-0.0274,-0.0309,-0.031,-0.031,-0.031,0,0.0697,0.0615,0.0577,0.0475,0.0449,0.0439,0.035,0.0329,0.0266,0.0228,0.0214,0.0116,0.0064,-0.0021,-0.0098,-0.0141,-0.016,-0.0188,-0.0135,-0.0146,-0.0123,-0.0124,-0.0036,-0.0029,-0.015,-0.0149,-0.0147,0,0.0748,0.0734,0.063,0.0604,0.056,0.0518,0.0483,0.0392,0.0358,0.0274,0.0263,0.0205,0.0153,0.0075,-0.0004,-0.0063,-0.0094,-0.0059,-0.0103,-0.0079,-0.0094,-0.0092,-0.0095,-0.0048,-0.0046,-0.0045,-0.0044,0,0.0846,0.0806,0.0759,0.0698,0.0658,0.0605,0.0548,0.0531,0.0426,0.0393,0.0339,0.03,0.0221,0.0165,0.0094,0.0044,-0.0017,-0.0029,-0.0028,-0.0004,0.0027,0.001,-0.0108,-0.0031,-0.0032,-0.0033,-0.0034,-0.0034,0.093,0.0914,0.0838,0.0788,0.0735,0.0684,0.0659,0.0593,0.0547,0.0477,0.0425,0.0375,0.0301,0.02,0.0153,0.0112,0.0084,0.0086,0.0086,0.0088,0.0096,0.0034,0.0099,0.0098,0.0098,0.0097,0.0097,0,0.1024,0.0971,0.0926,0.0848,0.0809,0.0755,0.0688,0.0658,0.0616,0.0552,0.0503,0.0441,0.0385,0.0302,0.024,0.0223,0.0193,0.0209,0.0209,0.0198,0.0125,0.013,0.0234,0.0234,0.0234,0.0234,0.0234,0.0234,0.1068,0.1037,0.0988,0.0929,0.0875,0.0826,0.0793,0.0744,0.0693,0.0628,0.0581,0.0527,0.0455,0.0387,0.0333,0.0309,0.029,0.0315,0.0283,0.0216,0.0204,0.0192,0.0196,0.0312,0.0312,0.0359,0.036,0.036]},{"header":{"parameterUnit":"m.s-1","parameterCategory":1,"la1":30.2991,"la2":30.254,"lo1":-89.0895,"lo2":-89.0444,"dy":0.0017,"dx":0.0017,"nx":28,"ny":28,"refTime":"2025-03-15T09:00:00:Z","depth":0,"parameterNumber":3,"parameterNumberName":"V-component_of_WINDS"},"data":[0,0,0,0,0,0,0,0,0,0,0,0,0,0,0,0,0,0,0,0,0,0,0,0,0,0,0,0,0,0,0,0,0,0,0,0,0,0,0,0,0,0,0,0,0,0,0,0,0,0,0,0,0,0,0,0,0,0,9.3835,9.3837,0,9.4084,9.4086,9.4089,9.4105,9.4102,9.41,9.4097,9.4356,9.4365,9.4374,0,0,0,0,0,0,0,0,0,0,0,0,0,9.338,9.3388,9.3834,9.3838,9.3841,9.4083,9.4087,9.409,9.4106,9.4102,9.4099,9.4096,9.4352,9.4364,9.4375,0,0,0,0,0,0,0,0,0,0,0,0,0,9.3598,9.3391,9.3834,9.3878,9.3884,9.4082,9.4087,9.4091,9.4106,9.4102,9.4098,9.4094,9.4349,9.4363,9.4377,9.4549,0,0,9.442,9.4426,0,0,0,0,0,0,0,0,9.3586,9.3615,9.3868,9.3875,9.3883,9.4059,9.4021,9.4245,9.4108,9.4022,9.4097,9.4092,9.4261,9.4282,9.4338,9.4561,9.4572,9.4422,9.443,9.4436,9.444,0,0,0,0,0,0,0,9.357,9.3604,9.3933,9.3872,9.3881,9.3887,9.3914,9.4064,9.4162,9.4029,9.4031,9.406,9.4264,9.4324,9.4344,9.4576,9.4421,9.4434,9.4443,9.4448,9.496,9.4965,0,0,0,0,0,0,9.3546,9.3591,9.3925,9.3941,9.3721,9.3899,9.3928,9.4007,9.4161,9.418,9.4063,9.406,9.4302,9.4327,9.4353,9.4569,9.4436,9.445,9.4458,9.4955,9.4961,9.4966,0,0,0,0,0,0,9.3536,9.3576,9.3915,9.3767,9.381,9.3911,9.3999,9.4014,9.4074,9.4186,9.4204,9.4107,9.4299,9.4333,9.4502,9.4578,9.4456,9.4469,9.4949,9.4957,9.4964,9.5,0,0,0,0,0,0,9.3523,9.3572,9.3637,9.3768,9.3818,9.4057,9.4004,9.4022,9.4098,9.4096,9.4232,9.425,9.4299,9.448,9.4516,9.4596,9.448,9.4943,9.4952,9.4961,9.4993,9.5008,9.5021,0,0,0,0,0,9.3507,9.3637,9.364,9.368,9.3901,9.4061,9.4091,9.4143,9.4104,9.4172,9.4245,9.4246,9.4564,9.4497,9.4537,9.4623,9.4938,9.495,9.4961,9.4986,9.5005,9.5021,0,0,0,0,0,0,9.3512,9.3655,9.366,9.3835,9.3936,9.4064,9.415,9.416,9.4275,9.4268,9.4329,9.436,9.4528,9.4592,9.4515,9.4801,9.4747,9.4767,9.4753,9.4772,9.4786,9.4767,9.4492,0,0,0,0,0,9.3534,9.3651,9.3769,9.3913,9.3964,9.4048,9.412,9.4152,9.4259,9.4302,9.4387,9.4493,9.4617,9.4698,9.4818,9.5002,9.5034,9.5081,9.5095,9.5106,9.5124,9.5231,9.5254,9.5004,9.5004,9.5003,0,0,9.358,9.3672,9.3742,9.3917,9.3999,9.4121,9.4084,9.4214,9.4306,9.4323,9.4487,9.4554,9.4676,9.4854,9.4937,9.4913,9.52,9.5121,9.5129,9.514,9.5245,9.5268,9.5289,9.5011,9.501,9.5009,0,0,9.3727,9.3806,9.3937,9.4021,9.4145,9.4201,9.4233,9.436,9.4405,9.4571,9.4587,9.4699,9.491,9.4998,9.5071,9.5256,9.5263,9.5293,9.5368,9.5472,9.5492,9.551,9.5579,9.5603,9.5309,9.5309,9.5309,0,9.3768,9.3951,9.4003,9.4134,9.4213,9.4233,9.4368,9.4447,9.4605,9.466,9.463,9.49,9.4983,9.5184,9.523,9.5286,9.5327,9.5278,9.5484,9.5503,9.552,9.5588,9.5613,9.5313,9.5312,9.5312,9.5312,0,9.3999,9.4126,9.4217,9.4369,9.4458,9.459,9.4665,9.4749,9.4774,9.4834,9.5006,9.5107,9.525,9.53,9.5325,9.5507,9.5489,9.5471,9.5419,9.5546,9.5611,9.5637,9.5317,9.5316,9.5315,9.5314,0,0,9.4154,9.4336,9.4369,9.444,9.4581,9.4682,9.4817,9.4956,9.5029,9.5138,9.5256,9.5436,9.5422,9.5504,9.554,9.5631,9.5776,9.5603,9.5607,9.5635,9.5987,9.6001,9.603,9.5781,9.5786,9.579,9.5978,0,9.4319,9.4558,9.4611,9.4818,9.4939,9.4962,9.5081,9.5182,9.5243,9.5356,9.5424,9.5552,9.5522,9.5573,9.5663,9.5739,9.5848,9.5726,9.5894,9.59,9.5865,9.6063,9.6078,9.625,9.6003,9.6008,9.6011,0,9.4543,9.4658,9.4877,9.5006,9.5059,9.5164,9.5299,9.5405,9.5522,9.5561,9.5654,9.5682,9.5827,9.5767,9.597,9.5886,9.5958,9.6006,9.6014,9.6034,9.5964,9.6091,9.6306,9.6333,9.605,9.6047,9.6044,0,9.4639,9.4848,9.5008,9.5068,9.5221,9.5296,9.5363,9.5476,9.5558,9.5676,9.5731,9.5865,9.5939,9.6043,9.6108,9.6057,9.6308,9.6251,9.6347,9.6345,9.6399,9.6396,9.6632,9.6442,9.6441,9.6441,9.644,0,9.4818,9.4953,9.5054,9.5152,9.5305,9.5366,9.5516,9.5584,9.5684,9.5799,9.5827,9.5934,9.6012,9.6131,9.6182,9.6345,9.6378,9.6415,9.6428,9.6415,9.641,9.6464,9.6455,9.6448,9.6446,9.6445,9.6443,0,9.4952,9.5024,9.52,9.5332,9.5368,9.5476,9.559,9.5688,9.575,9.5895,9.5933,9.6032,9.6174,9.6248,9.6425,9.6461,9.6645,9.6649,9.6605,9.6611,9.6704,9.6695,9.6985,9.7028,9.6806,9.6808,9.681,0,9.5062,9.5167,9.531,9.5388,9.5458,9.5583,9.5668,9.5733,9.582,9.5964,9.6046,9.619,9.6308,9.6535,9.6624,9.6761,9.6771,9.6863,9.6792,9.6777,9.6777,9.6771,9.6784,9.6876,9.6878,9.688,9.6881,0,9.5253,9.5285,9.5404,9.5539,9.5639,9.5748,9.5855,9.5919,9.6002,9.61,9.6245,9.6337,9.652,9.6664,9.6808,9.6881,9.6898,9.6903,9.6933,9.6922,9.6894,9.6914,9.6643,9.6896,9.6895,9.6894,9.6893,9.6892,9.5381,9.5477,9.5593,9.5727,9.5816,9.5917,9.6017,9.6092,9.6214,9.6368,9.6399,9.6555,9.6674,9.687,9.6947,9.7072,9.7053,9.7095,9.7107,9.7117,9.7123,9.6872,9.7098,9.7097,9.7097,9.7097,9.7097,0,9.5576,9.5653,9.5776,9.5926,9.6033,9.6037,9.6158,9.6248,9.6384,9.6492,9.6609,9.6779,9.692,9.7021,9.7166,9.7246,9.7258,9.7282,9.7278,9.7296,9.7129,9.7091,9.7271,9.7271,9.7271,9.7271,9.7271,9.7271,9.569,9.5853,9.59,9.6108,9.6185,9.6337,9.6406,9.6501,9.6589,9.6777,9.6894,9.6959,9.7066,9.7219,9.735,9.7377,9.743,9.7455,9.7482,9.7325,9.7307,9.7289,9.7253,9.7465,9.7465,9.7639,9.7641,9.7642]}]]